• Em Portugal
  • Lista de países
  • Para 7 dias
  • Temperatura da água
  • Mapas de satélite
  • Mapa do tempo
  • Widgets de tempo
  • user-avatar
    Iniciar Sessão

    Previsão horária em La Condamine

    Hoje, 23 Outubro, Segunda-feira

    Tempo Temperatura Precipitação Vento Pressão Humidade
    00:00 +11°C° 0 mm 4 m/s 745 mmHg 36%
    01:00 +11°C° 0 mm 3 m/s 745 mmHg 34%
    02:00 +11°C° 0 mm 3 m/s 745 mmHg 33%
    03:00 +11°C° 0 mm 3 m/s 745 mmHg 31%
    04:00 +11°C° 0 mm 3 m/s 746 mmHg 31%
    05:00 +11°C° 0 mm 3 m/s 746 mmHg 30%
    06:00 +11°C° 0 mm 3 m/s 746 mmHg 29%
    07:00 +13°C° 0 mm 3 m/s 746 mmHg 27%
    08:00 +17°C° 0 mm 2 m/s 746 mmHg 24%
    09:00 +20°C° 0 mm 2 m/s 746 mmHg 22%
    10:00 +21°C° 0 mm 2 m/s 746 mmHg 21%
    11:00 +22°C° 0 mm 3 m/s 746 mmHg 20%
    12:00 +24°C° 0 mm 3 m/s 746 mmHg 20%
    13:00 +24°C° 0 mm 3 m/s 746 mmHg 21%
    14:00 +22°C° 0 mm 3 m/s 746 mmHg 23%
    15:00 +21°C° 0 mm 3 m/s 746 mmHg 25%
    16:00 +19°C° 0 mm 3 m/s 746 mmHg 28%
    17:00 +17°C° 0 mm 3 m/s 746 mmHg 32%
    18:00 +15°C° 0 mm 2 m/s 747 mmHg 36%
    19:00 +15°C° 0 mm 2 m/s 747 mmHg 33%
    20:00 +15°C° 0 mm 2 m/s 748 mmHg 31%
    21:00 +14°C° 0 mm 2 m/s 748 mmHg 28%
    22:00 +14°C° 0 mm 2 m/s 748 mmHg 27%
    23:00 +14°C° 0 mm 2 m/s 748 mmHg 26%

    Amanhã, 24 Outubro, Terça-feira

    Tempo Temperatura Precipitação Vento Pressão Humidade
    00:00 +14°C° 0 mm 2 m/s 748 mmHg 25%
    01:00 +14°C° 0 mm 2 m/s 748 mmHg 25%
    02:00 +14°C° 0 mm 2 m/s 748 mmHg 25%
    03:00 +14°C° 0 mm 2 m/s 748 mmHg 25%
    04:00 +14°C° 0 mm 2 m/s 748 mmHg 25%
    05:00 +14°C° 0 mm 2 m/s 748 mmHg 26%
    06:00 +14°C° 0 mm 2 m/s 749 mmHg 27%
    07:00 +18°C° 0 mm 1 m/s 749 mmHg 25%
    08:00 +21°C° 0 mm 1 m/s 749 mmHg 23%
    09:00 +24°C° 0 mm 1 m/s 750 mmHg 22%
    10:00 +25°C° 0 mm 1 m/s 750 mmHg 22%
    11:00 +25°C° 0 mm 2 m/s 750 mmHg 22%
    12:00 +26°C° 0 mm 2 m/s 750 mmHg 22%
    13:00 +25°C° 0 mm 2 m/s 749 mmHg 24%
    14:00 +25°C° 0 mm 2 m/s 749 mmHg 27%
    15:00 +24°C° 0 mm 2 m/s 749 mmHg 29%
    16:00 +21°C° 0 mm 2 m/s 750 mmHg 34%
    17:00 +19°C° 0 mm 2 m/s 750 mmHg 40%
    18:00 +17°C° 0 mm 2 m/s 750 mmHg 45%
    19:00 +17°C° 0 mm 2 m/s 750 mmHg 44%
    20:00 +17°C° 0 mm 2 m/s 751 mmHg 43%
    21:00 +17°C° 0 mm 2 m/s 751 mmHg 42%
    22:00 +17°C° 0 mm 2 m/s 751 mmHg 41%
    23:00 +17°C° 0 mm 2 m/s 751 mmHg 41%

    Depois de amanhã, 25 Outubro, Quarta-feira

    Tempo Temperatura Precipitação Vento Pressão Humidade
    00:00 +17°C° 0 mm 2 m/s 752 mmHg 40%
    01:00 +16°C° 0 mm 2 m/s 752 mmHg 40%
    02:00 +16°C° 0 mm 1 m/s 752 mmHg 41%
    03:00 +16°C° 0 mm 1 m/s 752 mmHg 41%
    04:00 +16°C° 0 mm 1 m/s 752 mmHg 42%
    05:00 +16°C° 0 mm 1 m/s 752 mmHg 42%
    06:00 +16°C° 0 mm 1 m/s 752 mmHg 43%
    07:00 +19°C° 0 mm 1 m/s 752 mmHg 39%
    08:00 +22°C° 0 mm 1 m/s 753 mmHg 35%
    09:00 +24°C° 0 mm 1 m/s 753 mmHg 31%
    10:00 +25°C° 0 mm 1 m/s 753 mmHg 31%
    11:00 +26°C° 0 mm 1 m/s 753 mmHg 30%
    12:00 +26°C° 0 mm 2 m/s 753 mmHg 30%
    13:00 +26°C° 0 mm 2 m/s 753 mmHg 32%
    14:00 +25°C° 0 mm 2 m/s 752 mmHg 34%
    15:00 +25°C° 0 mm 2 m/s 752 mmHg 36%
    16:00 +23°C° 0 mm 2 m/s 752 mmHg 41%
    17:00 +20°C° 0 mm 2 m/s 753 mmHg 46%
    18:00 +18°C° 0 mm 2 m/s 753 mmHg 52%
    19:00 +18°C° 0 mm 2 m/s 753 mmHg 51%
    20:00 +18°C° 0 mm 2 m/s 753 mmHg 51%
    21:00 +17°C° 0 mm 2 m/s 754 mmHg 51%
    22:00 +17°C° 0 mm 2 m/s 754 mmHg 50%
    23:00 +17°C° 0 mm 2 m/s 754 mmHg 50%

    26 Outubro, Quinta-feira

    Tempo Temperatura Precipitação Vento Pressão Humidade
    00:00 +18°C° 0 mm 1 m/s 754 mmHg 50%
    01:00 +18°C° 0 mm 1 m/s 754 mmHg 49%
    02:00 +17°C° 0 mm 2 m/s 753 mmHg 49%
    03:00 +17°C° 0 mm 2 m/s 753 mmHg 48%
    04:00 +17°C° 0 mm 2 m/s 753 mmHg 47%
    05:00 +18°C° 0 mm 1 m/s 753 mmHg 47%
    06:00 +18°C° 0 mm 1 m/s 753 mmHg 46%
    07:00 +20°C° 0 mm 1 m/s 753 mmHg 41%
    08:00 +23°C° 0 mm 1 m/s 754 mmHg 36%
    09:00 +25°C° 0 mm 1 m/s 754 mmHg 31%
    10:00 +26°C° 0 mm 2 m/s 754 mmHg 30%
    11:00 +27°C° 0 mm 2 m/s 753 mmHg 29%
    12:00 +28°C° 0 mm 2 m/s 753 mmHg 29%
    13:00 +27°C° 0 mm 2 m/s 753 mmHg 32%
    14:00 +26°C° 0 mm 3 m/s 752 mmHg 36%
    15:00 +26°C° 0 mm 3 m/s 752 mmHg 39%
    16:00 +24°C° 0 mm 2 m/s 752 mmHg 46%
    17:00 +20°C° 0 mm 2 m/s 752 mmHg 53%
    18:00 +18°C° 0 mm 2 m/s 752 mmHg 59%
    19:00 +18°C° 0 mm 2 m/s 752 mmHg 57%
    20:00 +18°C° 0 mm 2 m/s 752 mmHg 56%
    21:00 +18°C° 0 mm 2 m/s 752 mmHg 54%
    22:00 +18°C° 0 mm 2 m/s 752 mmHg 53%
    23:00 +18°C° 0 mm 2 m/s 752 mmHg 53%

    27 Outubro, Sexta-feira

    Tempo Temperatura Precipitação Vento Pressão Humidade
    00:00 +18°C° 0 mm 2 m/s 751 mmHg 53%
    01:00 +18°C° 0 mm 2 m/s 751 mmHg 52%
    02:00 +18°C° 0 mm 2 m/s 750 mmHg 52%
    03:00 +17°C° 0 mm 2 m/s 750 mmHg 51%
    04:00 +17°C° 0 mm 2 m/s 749 mmHg 50%
    05:00 +17°C° 0 mm 2 m/s 749 mmHg 49%
    06:00 +17°C° 0 mm 2 m/s 749 mmHg 48%
    07:00 +20°C° 0 mm 2 m/s 748 mmHg 44%
    08:00 +23°C° 0 mm 2 m/s 748 mmHg 39%
    09:00 +26°C° 0 mm 2 m/s 748 mmHg 35%
    10:00 +27°C° 0 mm 2 m/s 747 mmHg 34%
    11:00 +28°C° 0 mm 3 m/s 746 mmHg 33%
    12:00 +29°C° 0 mm 3 m/s 746 mmHg 32%
    13:00 +28°C° 0 mm 3 m/s 745 mmHg 35%
    14:00 +27°C° 0 mm 3 m/s 745 mmHg 38%
    15:00 +26°C° 0 mm 3 m/s 744 mmHg 41%
    16:00 +23°C° 0 mm 4 m/s 744 mmHg 46%
    17:00 +21°C° 0 mm 4 m/s 744 mmHg 51%
    18:00 +19°C° 0 mm 4 m/s 744 mmHg 55%
    19:00 +19°C° 0 mm 3 m/s 744 mmHg 52%
    20:00 +18°C° 0 mm 3 m/s 745 mmHg 49%
    21:00 +18°C° 0 mm 3 m/s 745 mmHg 46%
    22:00 +18°C° 0 mm 2 m/s 745 mmHg 42%
    23:00 +18°C° 0 mm 2 m/s 745 mmHg 38%

    28 Outubro, Sábado

    Tempo Temperatura Precipitação Vento Pressão Humidade
    00:00 +17°C° 0 mm 2 m/s 745 mmHg 33%
    01:00 +17°C° 0 mm 2 m/s 745 mmHg 30%
    02:00 +17°C° 0 mm 2 m/s 745 mmHg 28%
    03:00 +17°C° 0 mm 2 m/s 745 mmHg 25%
    04:00 +17°C° 0 mm 2 m/s 745 mmHg 25%
    05:00 +17°C° 0 mm 2 m/s 745 mmHg 25%
    06:00 +18°C° 0 mm 1 m/s 745 mmHg 25%
    07:00 +20°C° 0 mm 1 m/s 745 mmHg 25%
    08:00 +22°C° 0 mm 1 m/s 746 mmHg 25%
    09:00 +25°C° 0 mm 1 m/s 746 mmHg 25%
    10:00 +25°C° 0 mm 1 m/s 745 mmHg 27%
    11:00 +26°C° 0 mm 2 m/s 745 mmHg 29%
    12:00 +27°C° 0 mm 3 m/s 744 mmHg 30%
    13:00 +26°C° 0 mm 3 m/s 744 mmHg 34%
    14:00 +25°C° 0 mm 3 m/s 744 mmHg 38%
    15:00 +25°C° 0 mm 3 m/s 743 mmHg 41%
    16:00 +22°C° 0 mm 3 m/s 743 mmHg 48%
    17:00 +19°C° 0 mm 2 m/s 743 mmHg 55%
    18:00 +17°C° 0 mm 2 m/s 743 mmHg 62%
    19:00 +17°C° 0 mm 2 m/s 743 mmHg 59%
    20:00 +17°C° 0 mm 2 m/s 743 mmHg 55%
    21:00 +17°C° 0 mm 2 m/s 742 mmHg 51%
    22:00 +17°C° 0 mm 2 m/s 742 mmHg 49%
    23:00 +17°C° 0 mm 2 m/s 742 mmHg 47%
    Mostrar mais